Regional Weather Roundup
Issued by NWS

Home | Current Version | Previous Version | Graphics & Text | Print | Product List | Glossary On
Versions: 1 2 3 4 5 6 7 8 9 10 11 12 13 14 15 16 17 18 19 20 21 22 23 24 25 26 27 28 29 30 31 32 33 34 35 36 37 38 39 40 41 42 43 44 45 46 47 48 49 50
202
ASUS45 KBOU 191907
RWRCO

WEATHER ROUNDUP FOR COLORADO
NATIONAL WEATHER SERVICE DENVER/BOULDER CO
1200 PM MST THU JAN 19 2017

NOTE: "FAIR" INDICATES FEW OR NO CLOUDS BELOW 12000 FEET WITH NO
SIGNIFICANT WEATHER AND/OR OBSTRUCTIONS TO VISIBILITY.

COZ001>005-013-030-031-192000-
...NORTHWEST COLORADO...

CITY           SKY/WX    TMP DP  RH WIND       PRES   REMARKS
CRAIG          CLOUDY    20  14  77 SW3       29.79F
HAYDEN         CLOUDY    25  12  58 E3        29.78F
MEEKER         PTSUNNY   35  21  56 NE6       29.78F WCI  30
MOUNT WERNER   NOT AVBL
STEAMBOAT SPGS FAIR      18  14  84 CALM      29.79F
WALDEN           N/A    N/A N/A N/A CALM      29.75F
$$

COZ006>008-011-192000-
...WEST CENTRAL VALLEYS...

CITY           SKY/WX    TMP DP  RH WIND       PRES   REMARKS
GRAND JUNCTION CLOUDY    37  26  64 E7        29.80F
MONTROSE       FAIR      38  20  48 E10       29.83F
EAGLE          SUNNY     27  16  63 CALM      29.86F
RIFLE          FAIR      33  22  63 CALM      29.81F
DELTA          PTSUNNY   41  25  52 E3        29.83F
NUCLA          CLOUDY    36  25  64 NW5       29.86F
$$

COZ017>023-064>068-192000-
...SOUTHWEST COLORADO...

CITY           SKY/WX    TMP DP  RH WIND       PRES   REMARKS
DURANGO        FAIR      31  27  85 E3        29.87F
CORTEZ         CLOUDY    38  29  70 SW13      29.86F
PAGOSA SPRINGS PTSUNNY   33  21  60 CALM      29.88F
TELLURIDE      CLOUDY    34  12  40 SE3       29.82F
WOLF CREEK PAS   N/A     16  16 100 SW10      29.89F WCI   3
$$

COZ009-010-012-014-032>034-037-058>063-192000-
...CENTRAL COLORADO...

CITY           SKY/WX    TMP DP  RH WIND       PRES   REMARKS
ASPEN          FAIR      28  15  58 NW6       29.77F WCI  22
BUENA VISTA    FAIR      29  17  61 CALM      29.72F
COPPER MTN     NOT AVBL
BERTHOUD PASS  NOT AVBL
COTTONWOOD PAS FAIR      41  12  30 N3        29.74F
GUNNISON       FLURRIES   7   4  87 SE5       29.90F WCI  -2
KREMMLING      LGT SNOW  19  14  79 CALM      29.86F
LEADVILLE      FAIR      38   5  25 NW9G16    29.72F
MONARCH PASS   FAIR      19  12  73 SW14G29   29.89F WCI   6
SALIDA         FAIR      39  17  41 SW13G24   29.78F
SUNLIGHT       FAIR      23  18  80 SW12G21   29.82F WCI  12
WILKERSON PASS FAIR      34   1  25 W8        29.78F WCI  27
$$

COZ069>075-192000-
...SAN LUIS VALLEY/SANGRE DE CRISTO MOUNTAINS...

CITY           SKY/WX    TMP DP  RH WIND       PRES   REMARKS
ALAMOSA        CLOUDY    21  19  92 SW5       29.85F WCI  15
LA VETA PASS   FOG       21  18  86 NE37G44   29.73F VSB 3/4 WCI   1
SAGUACHE       CLOUDY    23  19  86 S5        29.85F WCI  17
$$

COZ035-036-038>040-192000-
...NORTHERN COLORADO FRONT RANGE...

CITY           SKY/WX    TMP DP  RH WIND       PRES   REMARKS
DENVER INTL AP FAIR      52  20  28 SE9       29.57F
DMNS CITY PARK   N/A     56  14  19 SW1G10    29.56F
AURORA         MOSUNNY   53  17  24 SE8       29.58F
FRONT RANGE AP MOSUNNY   52  21  30 SE8       29.59
ERIE MUNI ARPT FAIR      44  22  41 CALM      29.58F
BOULDER MUN AP FAIR      46  21  36 CALM      29.57F
CENTENNIAL     FAIR      50  17  27 E6        29.57F
BROOMFIELD     MOSUNNY   46  23  39 N6        29.59F
FORT COLLINS   FAIR      46  19  34 CALM      29.58F
LONGMONT       FAIR      50  25  37 CALM      29.59F
$$

COZ041-046-047-076>085-087-088-192000-
...PIKES PEAK/PALMER DIVIDE AND SOUTHERN FOOTHILLS...

CITY           SKY/WX    TMP DP  RH WIND       PRES   REMARKS
COLO. SPRINGS  FAIR      50  11  20 S7        29.61F
A. F. ACADEMY  FAIR      51   8  17 S7        29.59F
SCHRIEVER AFB  NOT AVBL
ELLICOTT       FAIR     N/A N/A N/A VRB3      29.59F
FALCON         FAIR      52   8  17 SW7G17    29.63F
FORT CARSON    NOT AVBL
LIMON          FAIR      52  14  22 NW6       29.57F
MONUMENT HILL  FAIR      48  12  23 CALM      29.62F
TRINIDAD       FAIR      42  21  43 E6        29.61F
$$

COZ042>045-048>051-090-091-192000-
...NORTHEAST COLORADO...

CITY           SKY/WX    TMP DP  RH WIND       PRES   REMARKS
GREELEY ARPT   FAIR      42  25  50 NW3       29.59F
AKRON          FAIR      42  25  50 W9        29.57F
BURLINGTON     FAIR      45  29  53 NW8       29.57F
WRAY           FAIR      43  28  56 CALM      29.58F
STERLING       FAIR      41  30  65 SW6       29.56F
HOLYOKE        FAIR      46  28  49 SE3       29.57F
FORT MORGAN    FAIR      44  27  50 W3        29.57F
$$

COZ086-089-092>099-192000-
...SOUTHEAST COLORADO...

CITY           SKY/WX    TMP DP  RH WIND       PRES   REMARKS
PUEBLO         FAIR      49  29  46 E5        29.58F
LA JUNTA       FAIR      41  29  62 SW7       29.58F
LAMAR          NOT AVBL
SPRINGFIELD      N/A     49  21  33 NW15G22   29.56F
$$




USA.gov is the U.S. government's official web portal to all federal, state and local government web resources and services.